Regional Weather Roundup
Issued by NWS Albany, NY

Home | Current Version | Previous Version | Graphics & Text | Print | Product List | Glossary On
Versions: 1 2 3 4 5 6 7 8 9 10 11 12 13 14 15 16 17 18 19 20 21 22 23 24 25 26 27 28 29 30 31 32 33 34 35 36 37 38 39 40 41 42 43 44 45 46 47 48 49 50
000
ASUS41 KALY 201810
RWRALY

NEW YORK STATE HOURLY WEATHER ROUNDUP
NATIONAL WEATHER SERVICE ALBANY NY
100 PM EST SAT DEC 20 2014

NOTE: "FAIR" INDICATES FEW OR NO CLOUDS BELOW 12,000 FEET WITH NO
SIGNIFICANT WEATHER AND/OR NO OBSTRUCTIONS TO VISIBILITY.

NYZ032-033-038>043-046>054-057>066-NYZ062>081-201900-
EAST


CITY           SKY/WX    TMP DP  RH WIND       PRES   REMARKS
ALBANY         PTSUNNY   29  17  61 CALM      30.30S
GLENS FALLS    SUNNY     27  19  72 CALM      30.28F
POUGHKEEPSIE   CLOUDY    31  19  61 N8        30.27F WCI  23
NEWBURGH       CLOUDY    28  21  74 VRB5      30.26F WCI  23
MONTGOMERY     CLOUDY    30  20  66 NE3       30.25F
WHITE PLAINS   PTSUNNY   31  20  63 NW5       30.24S WCI  26
ISLIP          CLOUDY    32  21  64 NW7       30.25F WCI  26
NEW YORK CITY  CLOUDY    32  20  61 N7        30.26F WCI  26
CENTRAL PARK   CLOUDY    32  18  56 N7        30.28F WCI  26
$$

NYZ005>009-017-018-044>046-055-056-201900-
CENTRAL


CITY           SKY/WX    TMP DP  RH WIND       PRES   REMARKS
FULTON         CLOUDY    29  21  72 CALM      30.27F
SYRACUSE       CLOUDY    27  21  78 CALM      30.28F
ROME           MOSUNNY   26  19  74 CALM      30.30S
ELMIRA         CLOUDY    30  21  69 N6        30.22F WCI  24
BINGHAMTON     CLOUDY    25  20  81 N5        30.18F WCI  19
MONTICELLO     CLOUDY    25  19  80 N5        30.20F WCI  19
$$

NYZ026>034-041>043-201900-
NORTH


CITY           SKY/WX    TMP DP  RH WIND       PRES   REMARKS
WATERTOWN      SUNNY     28  16  60 NE3       30.29F
FORT DRUM      NOT AVBL
MASSENA        CLOUDY    20  16  84 N6        30.33F WCI  12
SARANAC LAKE   SUNNY     21  17  84 SW3       30.17F
PLATTSBURGH    CLOUDY    21  17  84 CALM      30.31S
$$

NYZ001>004-010>016-019>021-201900-
WEST


CITY           SKY/WX    TMP DP  RH WIND       PRES   REMARKS
NIAGARA FALLS  PTSUNNY   30  21  69 CALM      30.25F
BUFFALO        PTSUNNY   31  22  69 S6        30.24F WCI  25
DUNKIRK        CLOUDY    29  23  78 NW7       30.26F WCI  22
JAMESTOWN      CLOUDY    25  19  80 CALM      30.19F
WELLSVILLE     CLOUDY    24  19  81 N6        30.17F WCI  17
ROCHESTER      CLOUDY    31  21  66 SW3       30.26F
PENN YAN       CLOUDY    29  20  69 W3        30.24F
$$

             KEY
       WCI = WIND CHILL INDEX
       VSB = VISIBILITY
       HX  = HEAT INDEX
$$


USA.gov is the U.S. government's official web portal to all federal, state and local government web resources and services.